�N����,����,�~����,�C��,���x,�C��,����,���ϕ���,�ő�u�ԕ���,�ő厞����,���˗�,�I�_���x,�n�����x,�ő啗���N��,DTYPE
"17/10/29","00:10",0.0,15.2,97.0,1011.4,331.6,0.8,1.4,352.0,0.00,14.8,16.7,"00:02:50",1
"17/10/29","00:20",0.0,15.2,97.4,1011.9,267.6,0.5,1.2,264.8,0.00,14.8,16.6,"00:16:06",1
"17/10/29","00:30",0.0,15.3,97.4,1012.1,256.0,0.8,1.6,239.2,0.00,14.9,16.5,"00:23:44",1
"17/10/29","00:40",0.0,15.3,97.1,1011.6,264.1,0.3,0.8,242.8,0.00,14.9,16.6,"00:34:48",1
"17/10/29","00:50",0.0,15.4,97.2,1011.6,322.1,0.7,1.3,358.3,0.00,15.0,16.7,"00:47:14",1
"17/10/29","01:00",0.0,15.4,97.4,1011.6,253.7,0.6,1.0,344.0,0.00,15.0,16.6,"00:51:44",1
"17/10/29","01:10",0.0,15.4,97.6,1011.4,296.3,0.5,1.0,294.9,0.00,15.1,16.7,"01:00:02",1
"17/10/29","01:20",0.0,15.3,97.7,1011.4,347.4,0.6,1.7,346.4,0.00,15.0,16.5,"01:19:12",1
"17/10/29","01:30",0.0,15.3,97.8,1011.2,307.9,0.5,1.4,352.6,0.00,15.0,16.6,"01:20:32",1
"17/10/29","01:40",0.0,15.3,98.0,1010.7,342.1,0.6,1.2,328.8,0.00,15.0,16.3,"01:32:56",1
"17/10/29","01:50",0.0,15.5,97.3,1010.7,328.4,0.8,1.8,319.7,0.00,15.1,16.5,"01:49:20",1
"17/10/29","02:00",0.0,15.3,97.9,1010.2,275.9,0.5,1.1,333.3,0.00,15.0,16.6,"01:51:04",1
"17/10/29","02:10",0.0,15.3,98.2,1010.2,264.0,0.5,1.2,250.3,0.00,15.1,16.5,"02:09:44",1
"17/10/29","02:20",0.0,15.5,97.4,1010.2,250.3,0.8,1.6,248.4,0.00,15.1,16.5,"02:12:48",1
"17/10/29","02:30",0.0,15.4,97.8,1009.7,312.9,0.7,1.7,335.6,0.00,15.1,16.5,"02:23:54",1
"17/10/29","02:40",0.0,15.4,97.5,1009.5,289.5,0.6,1.9,350.7,0.00,15.0,16.4,"02:30:32",1
"17/10/29","02:50",0.0,15.4,97.5,1009.5,272.0,0.5,1.2,328.9,0.00,15.0,16.4,"02:42:24",1
"17/10/29","03:00",0.0,15.4,97.6,1009.5,273.6,0.3,1.0,310.0,0.00,15.1,16.6,"02:59:46",1
"17/10/29","03:10",0.0,15.4,97.6,1009.0,313.5,1.0,1.8,340.5,0.00,15.1,16.5,"03:01:46",1
"17/10/29","03:20",0.0,15.4,97.6,1008.6,296.6,0.5,1.1,257.1,0.00,15.1,16.5,"03:19:44",1
"17/10/29","03:30",0.0,15.4,97.9,1008.6,250.2,0.3,1.0,243.0,0.00,15.1,16.6,"03:20:02",1
"17/10/29","03:40",0.0,15.4,97.8,1008.3,287.7,0.6,0.9,251.5,0.00,15.1,16.6,"03:31:04",1
"17/10/29","03:50",0.0,15.5,97.7,1008.3,258.8,0.6,1.2,325.3,0.00,15.2,16.4,"03:49:44",1
"17/10/29","04:00",0.0,15.5,97.8,1008.6,304.5,0.5,1.2,340.3,0.00,15.2,16.5,"03:50:32",1
"17/10/29","04:10",0.0,15.6,97.6,1008.3,284.5,0.5,1.0,294.9,0.00,15.3,16.5,"04:05:04",1
"17/10/29","04:20",0.0,15.6,97.5,1007.4,291.9,0.5,1.0,349.3,0.00,15.2,16.6,"04:12:56",1
"17/10/29","04:30",0.0,15.6,97.6,1007.6,268.4,0.3,0.6,269.2,0.00,15.3,16.5,"04:24:48",1
"17/10/29","04:40",0.0,15.6,97.9,1007.4,283.0,0.6,1.2,338.8,0.00,15.3,16.7,"04:37:52",1
"17/10/29","04:50",0.0,15.7,97.9,1007.6,215.7,0.7,1.6,229.1,0.00,15.4,16.5,"04:45:44",1
"17/10/29","05:00",0.0,15.7,97.7,1007.8,276.7,0.7,1.3,310.8,0.00,15.4,16.6,"04:52:48",1
"17/10/29","05:10",0.0,15.8,97.5,1007.1,323.3,0.7,1.7,317.5,0.00,15.4,16.6,"05:04:16",1
"17/10/29","05:20",0.0,15.8,97.7,1006.7,293.0,0.7,1.4,294.3,0.00,15.5,16.5,"05:10:40",1
"17/10/29","05:30",0.0,15.8,97.6,1006.7,309.2,0.8,1.8,324.3,0.00,15.5,16.4,"05:21:36",1
"17/10/29","05:40",0.0,15.9,97.3,1006.7,299.6,0.8,1.8,233.0,0.00,15.5,16.7,"05:30:32",1
"17/10/29","05:50",0.0,15.9,97.2,1006.7,290.0,0.7,1.6,236.3,0.00,15.5,16.5,"05:47:44",1
"17/10/29","06:00",0.0,15.9,97.5,1006.7,288.4,0.7,1.3,283.1,0.00,15.5,16.5,"05:56:08",1
"17/10/29","06:10",0.0,16.0,97.2,1006.4,285.1,0.7,1.6,254.8,0.00,15.6,16.4,"06:01:28",1
"17/10/29","06:20",0.0,16.1,97.0,1006.0,328.1,0.3,1.3,341.1,0.00,15.7,16.6,"06:18:00",1
"17/10/29","06:30",0.0,16.1,96.9,1005.7,328.7,0.3,1.1,337.2,0.00,15.6,16.5,"06:20:32",1
"17/10/29","06:40",0.0,16.1,96.9,1006.0,254.2,0.6,1.3,234.8,0.00,15.6,16.6,"06:37:52",1
"17/10/29","06:50",0.0,16.1,97.1,1005.5,277.0,0.5,0.9,263.0,0.00,15.7,16.5,"06:42:08",1
"17/10/29","07:00",0.0,16.1,97.2,1006.0,268.0,0.8,2.0,233.8,0.00,15.7,16.5,"06:58:48",1
"17/10/29","07:10",0.0,16.1,97.0,1005.5,302.3,1.0,1.9,310.3,0.00,15.7,16.8,"07:09:52",1
"17/10/29","07:20",0.0,16.2,96.6,1005.5,330.3,1.5,3.6,318.9,0.00,15.7,16.5,"07:14:08",1
"17/10/29","07:30",0.0,16.3,96.4,1005.0,325.0,0.7,1.6,6.3,0.00,15.8,16.4,"07:25:28",1
"17/10/29","07:40",0.0,16.4,96.4,1005.0,304.4,1.0,1.9,350.6,0.00,15.9,16.5,"07:39:20",1
"17/10/29","07:50",0.0,16.5,95.8,1005.2,314.6,1.2,2.6,338.7,0.00,15.9,16.7,"07:40:48",1
"17/10/29","08:00",0.0,16.4,95.7,1004.8,314.4,1.2,2.5,344.7,0.00,15.8,16.6,"07:57:52",1
"17/10/29","08:10",0.0,16.5,95.5,1004.8,300.0,1.0,2.9,327.3,0.00,15.8,16.8,"08:08:56",1
"17/10/29","08:20",0.0,16.5,95.3,1004.8,308.5,1.3,3.1,352.8,0.00,15.8,16.7,"08:12:48",1
"17/10/29","08:30",0.0,16.6,95.8,1004.5,271.5,0.8,1.4,319.3,0.01,16.0,16.7,"08:26:48",1
"17/10/29","08:40",0.0,16.8,96.0,1003.8,339.3,0.3,1.0,346.6,0.02,16.2,16.9,"08:34:16",1
"17/10/29","08:50",0.0,16.8,96.2,1003.4,219.4,0.2,0.8,244.1,0.01,16.2,16.8,"08:45:52",1
"17/10/29","09:00",0.0,16.7,96.3,1003.4,224.5,0.7,1.6,230.7,0.01,16.1,16.8,"08:56:32",1
"17/10/29","09:10",0.0,16.7,96.0,1003.6,243.8,0.7,1.7,223.5,0.00,16.1,16.9,"09:06:56",1
"17/10/29","09:20",0.0,16.7,96.2,1003.1,326.0,0.8,1.3,337.2,0.00,16.1,16.9,"09:14:32",1
"17/10/29","09:30",0.0,16.7,96.5,1002.6,280.1,0.7,1.3,335.8,0.00,16.2,16.7,"09:21:52",1
"17/10/29","09:40",0.0,16.7,96.9,1002.4,332.8,0.6,1.0,6.7,0.00,16.2,16.7,"09:35:52",1
"17/10/29","09:50",0.0,16.7,97.0,1002.6,288.8,0.5,0.9,311.0,0.00,16.3,17.0,"09:43:52",1
"17/10/29","10:00",0.0,16.7,97.3,1001.9,274.0,0.3,0.9,311.7,0.00,16.3,16.9,"09:52:16",1
"17/10/29","10:10",0.0,16.6,97.3,1001.7,272.0,0.8,1.8,235.7,0.00,16.2,16.8,"10:09:04",1
"17/10/29","10:20",0.0,16.5,97.4,1001.7,304.0,1.5,2.5,300.2,0.00,16.1,16.8,"10:15:44",1
"17/10/29","10:30",0.0,16.5,97.4,1001.5,309.0,2.3,4.2,322.0,0.01,16.1,16.9,"10:25:28",1
"17/10/29","10:40",0.0,16.5,97.2,1001.0,328.8,2.6,4.9,329.4,0.00,16.1,16.9,"10:30:32",1
"17/10/29","10:50",0.0,16.7,97.0,1001.0,314.6,1.8,4.5,332.2,0.00,16.3,16.9,"10:45:04",1
"17/10/29","11:00",0.0,16.7,97.0,1000.5,323.2,2.0,4.4,342.2,0.00,16.3,16.8,"10:52:32",1
"17/10/29","11:10",0.0,16.9,96.6,999.1,348.1,1.8,3.6,335.9,0.04,16.4,17.0,"11:07:54",1
"17/10/29","11:20",0.0,17.1,94.7,999.1,324.7,2.5,6.0,327.2,0.00,16.3,16.9,"11:18:40",1
"17/10/29","11:30",0.0,17.2,94.2,1000.0,299.5,1.7,4.1,330.7,0.00,16.3,17.0,"11:20:32",1
"17/10/29","11:40",0.0,17.1,94.2,1000.0,334.1,1.8,4.2,327.5,0.01,16.2,17.0,"11:32:56",1
"17/10/29","11:50",0.0,17.0,94.9,998.9,337.7,1.7,3.3,321.8,0.02,16.2,16.7,"11:47:36",1
"17/10/29","12:00",0.0,16.9,95.2,998.6,296.3,2.2,4.5,345.1,0.01,16.2,16.9,"11:57:04",1
"17/10/29","12:10",0.0,17.0,94.9,997.4,315.7,2.3,4.7,325.5,0.00,16.2,16.9,"12:01:52",1
"17/10/29","12:20",0.0,17.0,95.2,997.4,286.4,1.7,3.2,312.0,0.01,16.3,16.7,"12:15:52",1
"17/10/29","12:30",0.0,17.1,95.0,997.0,280.3,2.0,3.3,329.9,0.01,16.3,16.8,"12:22:24",1
"17/10/29","12:40",0.0,17.1,94.8,996.7,284.8,1.6,2.9,306.0,0.00,16.3,16.9,"12:32:16",1
"17/10/29","12:50",0.0,17.1,94.8,996.5,240.9,1.6,2.5,231.0,0.00,16.3,17.0,"12:45:28",1
"17/10/29","13:00",0.0,17.1,95.0,995.6,311.4,1.8,3.1,331.7,0.00,16.3,16.9,"12:55:52",1
"17/10/29","13:10",0.0,16.8,95.5,995.1,310.1,2.3,4.0,334.6,0.01,16.1,16.7,"13:06:32",1
"17/10/29","13:20",0.0,17.0,94.3,993.9,281.5,1.7,3.3,321.2,0.01,16.1,16.8,"13:19:20",1
"17/10/29","13:30",0.0,17.0,94.3,993.7,302.3,1.8,3.5,318.3,0.02,16.1,16.9,"13:21:04",1
"17/10/29","13:40",0.0,17.0,94.4,993.4,282.3,2.1,4.5,331.0,0.01,16.1,16.9,"13:36:40",1
"17/10/29","13:50",0.0,16.9,94.6,993.4,249.1,1.3,2.8,245.0,0.00,16.1,17.0,"13:45:44",1
"17/10/29","14:00",0.0,16.9,94.2,993.7,259.3,2.3,4.7,238.3,0.00,16.0,17.0,"13:53:52",1
"17/10/29","14:10",0.0,16.8,94.4,993.7,279.0,2.5,4.4,328.3,0.00,15.9,17.0,"14:09:52",1
"17/10/29","14:20",0.0,16.8,93.8,994.1,308.4,2.5,5.6,326.2,0.00,15.8,17.0,"14:12:24",1
"17/10/29","14:30",0.0,16.8,93.6,993.7,318.2,2.7,6.5,329.9,0.01,15.8,17.0,"14:28:32",1
"17/10/29","14:40",0.0,16.7,93.6,994.1,310.6,2.1,4.0,335.5,0.00,15.7,16.9,"14:30:48",1
"17/10/29","14:50",0.0,16.9,93.0,993.7,286.6,1.7,3.4,241.9,0.00,15.8,16.9,"14:44:24",1
"17/10/29","15:00",0.0,17.0,93.2,993.2,271.8,1.0,2.6,196.9,0.00,15.9,17.0,"14:52:24",1
"17/10/29","15:10",0.0,16.8,94.0,993.0,230.6,1.1,2.2,224.0,0.00,15.9,16.9,"15:03:20",1
"17/10/29","15:20",0.0,16.6,95.4,993.0,207.6,1.1,2.4,206.1,0.00,15.9,17.1,"15:16:24",1
"17/10/29","15:30",0.0,16.6,96.0,992.2,245.2,1.2,2.9,231.5,0.00,16.0,16.9,"15:21:44",1
"17/10/29","15:40",0.0,16.6,96.2,992.2,62.5,0.6,1.6,125.5,0.00,16.0,17.0,"15:32:24",1
"17/10/29","15:50",0.0,16.6,96.5,991.5,20.5,0.6,1.7,51.6,0.00,16.1,17.1,"15:40:32",1
"17/10/29","16:00",0.0,16.5,96.5,990.8,350.8,0.7,1.6,19.0,0.00,16.0,17.0,"15:52:12",1
"17/10/29","16:10",0.0,16.5,97.0,990.4,295.9,0.6,1.1,296.0,0.00,16.1,17.0,"16:00:56",1
"17/10/29","16:20",0.0,16.5,97.2,990.4,302.1,1.6,2.5,322.7,0.00,16.1,17.0,"16:15:28",1
"17/10/29","16:30",0.0,16.5,97.2,989.9,312.1,1.6,2.8,322.7,0.01,16.1,17.0,"16:23:04",1
"17/10/29","16:40",0.0,16.5,97.3,991.5,313.9,3.1,6.5,321.4,0.00,16.1,16.9,"16:38:56",1
"17/10/29","16:50",0.0,16.8,96.2,991.8,297.3,3.6,6.8,288.7,0.00,16.2,17.0,"16:43:22",1
"17/10/29","17:00",0.0,17.0,94.7,992.0,281.3,3.4,5.9,294.6,0.00,16.2,17.0,"16:50:40",1
"17/10/29","17:10",0.0,17.2,93.8,992.0,290.5,2.8,5.5,229.8,0.00,16.2,17.0,"17:04:48",1
"17/10/29","17:20",0.0,17.2,93.4,992.2,278.3,2.3,4.0,292.2,0.00,16.2,17.0,"17:10:24",1
"17/10/29","17:30",0.0,17.3,92.5,992.5,264.1,3.1,6.5,238.9,0.00,16.1,17.0,"17:25:36",1
"17/10/29","17:40",0.0,17.4,92.1,993.0,276.6,2.6,4.4,315.6,0.00,16.1,16.9,"17:33:20",1
"17/10/29","17:50",0.0,17.7,90.4,993.0,254.6,3.1,5.9,232.4,0.00,16.1,16.8,"17:46:48",1
"17/10/29","18:00",0.0,17.8,89.6,993.2,267.3,2.6,4.7,245.1,0.00,16.1,16.8,"17:50:32",1
"17/10/29","18:10",0.0,17.6,90.2,993.7,280.6,2.5,4.4,302.0,0.00,16.0,16.9,"18:02:16",1
"17/10/29","18:20",0.0,17.4,91.0,994.1,281.7,2.3,4.1,254.3,0.00,16.0,17.0,"18:18:00",1
"17/10/29","18:30",0.0,17.4,91.3,994.4,284.3,2.5,5.2,296.5,0.00,16.0,16.9,"18:23:04",1
"17/10/29","18:40",0.0,17.5,90.8,994.8,282.0,3.0,7.2,304.4,0.00,16.0,17.0,"18:34:00",1
"17/10/29","18:50",0.0,17.6,90.5,995.3,297.8,3.1,6.8,332.6,0.00,16.1,17.0,"18:45:12",1
"17/10/29","19:00",0.0,17.5,91.2,995.3,283.7,2.7,4.8,311.8,0.00,16.1,16.8,"18:56:16",1
"17/10/29","19:10",0.0,17.5,90.9,996.0,271.0,2.5,4.5,215.5,0.00,16.0,16.9,"19:06:32",1
"17/10/29","19:20",0.0,17.7,90.0,996.5,262.4,3.2,5.0,238.4,0.00,16.1,16.9,"19:14:08",1
"17/10/29","19:30",0.0,17.7,90.2,997.2,286.5,2.6,4.9,307.2,0.00,16.1,16.9,"19:22:32",1
"17/10/29","19:40",0.0,17.5,90.8,996.7,297.3,3.2,6.6,331.7,0.00,16.0,16.7,"19:31:04",1
"17/10/29","19:50",0.0,17.5,91.0,997.2,301.9,3.1,6.3,324.4,0.00,16.1,16.8,"19:45:04",1
"17/10/29","20:00",0.0,17.5,90.9,997.7,298.2,2.6,5.8,331.1,0.00,16.0,16.9,"19:50:02",1
"17/10/29","20:10",0.0,17.6,90.3,997.7,283.4,2.7,6.4,341.8,0.00,16.0,16.7,"20:09:24",1
"17/10/29","20:20",0.0,17.8,89.6,997.9,276.0,3.0,5.9,295.5,0.00,16.1,16.8,"20:16:32",1
"17/10/29","20:30",0.0,17.9,88.6,997.9,295.0,3.0,6.2,305.2,0.00,16.0,17.0,"20:27:28",1
"17/10/29","20:40",0.0,17.9,87.9,998.4,303.9,3.1,6.8,324.5,0.00,15.9,16.7,"20:33:44",1
"17/10/29","20:50",0.0,17.8,88.7,998.9,299.1,3.4,6.5,328.5,0.00,16.0,17.0,"20:48:00",1
"17/10/29","21:00",0.0,17.6,90.2,998.9,297.7,2.8,6.2,326.6,0.00,16.0,16.8,"20:59:52",1
"17/10/29","21:10",0.0,17.4,91.2,999.1,301.8,2.6,6.8,322.4,0.00,16.0,16.8,"21:08:32",1
"17/10/29","21:20",0.0,17.4,91.1,999.1,299.6,3.5,7.7,325.1,0.00,16.0,16.8,"21:16:08",1
"17/10/29","21:30",0.0,17.5,90.8,999.3,290.1,2.6,5.2,335.4,0.00,16.0,16.7,"21:27:36",1
"17/10/29","21:40",0.0,17.5,90.8,999.3,291.7,2.8,5.5,315.4,0.00,16.0,16.8,"21:34:24",1
"17/10/29","21:50",0.0,17.5,90.8,999.1,283.9,2.7,5.9,305.7,0.00,16.0,16.6,"21:42:00",1
"17/10/29","22:00",0.0,17.5,89.8,999.6,295.1,2.8,6.4,326.3,0.00,15.8,16.7,"21:54:48",1
"17/10/29","22:10",0.0,18.0,87.9,999.3,304.2,4.0,8.3,330.2,0.00,16.0,16.6,"22:01:36",1
"17/10/29","22:20",0.0,18.1,87.2,999.8,309.0,4.1,8.5,335.2,0.00,16.0,16.7,"22:17:36",1
"17/10/29","22:30",0.0,18.0,87.4,1000.0,297.1,2.7,5.5,321.4,0.00,15.9,16.6,"22:21:20",1
"17/10/29","22:40",0.0,18.2,85.6,1000.0,302.3,3.5,6.6,311.5,0.00,15.8,16.8,"22:30:02",1
"17/10/29","22:50",0.0,18.4,84.1,1000.0,301.6,3.9,8.1,340.4,0.00,15.7,16.6,"22:46:00",1
"17/10/29","23:00",0.0,18.2,83.9,1000.5,304.8,3.2,7.0,327.2,0.00,15.5,16.7,"22:53:28",1
"17/10/29","23:10",0.0,18.0,83.0,1000.5,297.1,3.0,5.8,327.9,0.00,15.1,16.8,"23:07:12",1
"17/10/29","23:20",0.0,18.0,82.2,1000.3,280.0,3.1,7.3,253.6,0.00,15.0,16.8,"23:16:00",1
"17/10/29","23:30",0.0,17.7,83.0,1000.3,284.7,2.2,4.3,319.4,0.00,14.8,16.7,"23:29:52",1
"17/10/29","23:40",0.0,17.3,83.6,1000.3,283.4,2.0,4.7,317.7,0.00,14.5,16.8,"23:37:12",1
"17/10/29","23:50",0.0,17.0,84.1,1000.8,300.5,1.7,3.2,258.8,0.00,14.3,16.7,"23:40:16",1
"17/10/29","24:00",0.0,17.0,82.3,1000.5,306.4,2.5,6.8,10.8,0.00,14.0,16.5,"23:51:04",1
